This demonstration page uses our WeatherBlox Daily Observations layout. Learn more.

Left ArrowRight Arrow

40.92945, -100.16068

Hourly Observations for August 18, 2020

Temp ( °F °C ) Dew Point ( °F °C ) Humidity (%) Winds ( mph kmh ) Pressure ( in mb ) Visibility ( mi km ) Precip ( " mm )
12:15 am 00:15 Clear 65 18.4 61 16 86 86 ESE 3 6 30.14 1020 10 16 N/A
12:35 am 00:35 Clear 67 19.4 59 14.9 75 75 N N/A 30.13 1020 10 16 N/A
12:55 am 00:55 Clear 65 18.5 60 15.3 82 82 N N/A 30.13 1020 10 16 N/A
1:15 am 01:15 Clear 66 18.7 57 14.1 75 75 S 3 6 30.13 1020 10 16 N/A
1:35 am 01:35 Clear 65 18.6 57 14.1 75 75 SE 3 6 30.13 1020 10 16 N/A
1:55 am 01:55 Clear 66 19.1 57 14 72 72 SSE 5 7 30.12 1020 10 16 N/A
2:15 am 02:15 Clear 66 18.7 57 14 74 74 S 3 6 30.12 1020 10 16 N/A
2:35 am 02:35 Clear 65 18.5 57 14.1 76 76 N N/A 30.12 1020 10 16 N/A
2:55 am 02:55 Clear 64 17.8 58 14.2 80 80 E 3 6 30.13 1020 10 16 N/A
3:15 am 03:15 Clear 67 19.2 58 14.2 73 73 SE 5 7 30.11 1020 10 16 N/A
3:35 am 03:35 Clear 64 17.7 58 14.2 80 80 SE 3 6 30.12 1020 10 16 N/A
3:55 am 03:55 Mostly Cloudy 62 16.6 58 14.5 88 88 N N/A 30.13 1020 10 16 N/A
4:15 am 04:15 Partly Cloudy 63 17.1 58 14.6 85 85 ESE 3 6 30.12 1020 10 16 N/A
4:35 am 04:35 Partly Cloudy 64 17.5 58 14.7 84 84 N N/A 30.11 1020 10 16 N/A
4:55 am 04:55 Partly Cloudy 64 17.5 59 14.8 84 84 SSE 5 7 30.11 1020 10 16 N/A
5:15 am 05:15 Partly Cloudy with Nearby Thunderstorms 65 18.3 58 14.5 79 79 S 5 7 30.11 1020 10 16 N/A
5:35 am 05:35 Cloudy 66 19.1 58 14.7 76 76 NNE 10 17 30.12 1020 10 16 N/A
5:55 am 05:55 Mostly Cloudy with Nearby Thunderstorms 67 19.7 58 14.3 71 71 SE 6 9 30.10 1019 10 16 N/A
6:15 am 06:15 Partly Cloudy 68 19.9 57 14.1 69 69 SSE 7 11 30.09 1019 10 16 N/A
6:35 am 06:35 Clear 69 20.3 57 13.7 66 66 SSE 8 13 30.09 1019 10 16 N/A
6:55 am 06:55 Sunny 66 18.7 58 14.5 77 77 S 5 7 30.10 1019 10 16 N/A
7:15 am 07:15 Partly Cloudy 67 19.3 57 14.1 72 72 S 3 6 30.09 1019 10 16 N/A
7:35 am 07:35 Partly Cloudy 67 19.5 58 14.3 72 72 SSE 6 9 30.09 1019 10 16 N/A
7:55 am 07:55 Sunny 67 19.7 58 14.4 72 72 SSE 7 11 30.07 1018 10 16 N/A
8:15 am 08:15 Partly Cloudy with Thunderstorms 68 20 58 14.3 70 70 S 6 9 30.08 1019 10 16 N/A
8:35 am 08:35 Mostly Cloudy with Thunderstorms 68 19.8 58 14.7 73 73 N 13 20 30.17 1022 10 16 N/A
8:55 am 08:55 Cloudy with Thunderstorms 66 18.9 60 15.5 81 81 NE 10 17 30.19 1022 10 16 N/A
9:15 am 09:15 Cloudy 65 18.6 61 16 85 85 SE 8 13 30.12 1020 10 16 0.02 0.51
9:35 am 09:35 Sunny 66 18.8 60 15.8 83 83 SSE 13 20 30.10 1019 10 16 0.02 0.51
9:55 am 09:55 Sunny 67 19.5 62 16.4 82 82 SSE 9 15 30.11 1019 10 16 0.02 0.51
10:15 am 10:15 Sunny 68 20.2 62 16.7 80 80 SE 9 15 30.10 1019 10 16 N/A
10:35 am 10:35 Sunny 71 21.7 62 16.6 73 73 SE 13 20 30.09 1019 10 16 N/A
10:55 am 10:55 Sunny 73 23 61 16.3 66 66 SE 12 19 30.07 1018 10 16 N/A
11:15 am 11:15 Sunny 75 23.8 60 15.8 61 61 SSE 14 22 30.06 1018 10 16 N/A
11:35 am 11:35 Sunny 77 25 59 15.1 54 54 S 15 24 30.04 1017 10 16 N/A
11:55 am 11:55 Sunny 80 26.4 57 14 46 46 S 13 20 30.02 1017 10 16 N/A
12:15 pm 12:15 Sunny 79 26 57 13.7 47 47 SSE 8 13 30.05 1018 10 16 N/A
12:35 pm 12:35 Sunny 82 27.7 57 14.1 43 43 SE 13 20 30.02 1016 10 16 N/A
12:55 pm 12:55 Sunny 82 27.9 59 14.9 45 45 SSE 15 24 30.00 1016 10 16 N/A
1:15 pm 13:15 Sunny 84 28.7 58 14.7 42 42 SSE 15 24 29.97 1015 10 16 N/A
1:35 pm 13:35 Sunny 85 29.4 56 13.3 37 37 S 18 30 29.95 1014 10 16 N/A
1:55 pm 13:55 Sunny 86 30.1 55 12.5 34 34 S 17 28 29.94 1014 10 16 N/A
2:15 pm 14:15 Sunny 87 30.7 55 12.8 33 33 SSE 16 26 29.92 1013 10 16 N/A
2:35 pm 14:35 Sunny 88 30.9 55 12.7 33 33 SSE 15 24 29.92 1013 10 16 N/A
2:55 pm 14:55 Sunny 88 31 56 13.5 34 34 SSE 16 26 29.91 1013 10 16 N/A
3:15 pm 15:15 Sunny 89 31.7 57 13.7 33 33 SSE 20 31 29.90 1012 10 16 N/A
3:35 pm 15:35 Sunny 89 31.5 57 13.7 34 34 SSE 17 28 29.90 1012 10 16 N/A
3:55 pm 15:55 Sunny 86 30.2 57 13.9 37 37 SSE 16 26 29.90 1012 10 16 N/A
4:15 pm 16:15 Sunny 88 31.2 56 13.5 34 34 SSE 16 26 29.89 1012 10 16 N/A
4:35 pm 16:35 Sunny 87 30.5 56 13.6 36 36 SSE 12 19 29.88 1012 10 16 N/A
4:55 pm 16:55 Sunny 88 31 57 13.8 35 35 SSE 14 22 29.88 1012 10 16 N/A
5:15 pm 17:15 Sunny 88 30.9 56 13.3 34 34 SSE 14 22 29.87 1012 10 16 N/A
5:35 pm 17:35 Sunny 87 30.5 55 13 34 34 SSE 15 24 29.87 1012 10 16 N/A
5:55 pm 17:55 Sunny 86 30.1 57 13.8 37 37 SSE 15 24 29.88 1012 10 16 N/A
6:15 pm 18:15 Sunny 86 30.2 58 14.5 38 38 SE 15 24 29.87 1011 10 16 N/A
6:35 pm 18:35 Sunny 86 29.8 58 14.6 40 40 SE 13 20 29.87 1012 10 16 N/A
6:55 pm 18:55 Sunny 84 28.9 58 14.5 41 41 SE 14 22 29.88 1012 10 16 N/A
7:15 pm 19:15 Sunny 84 28.9 57 14 40 40 SE 12 19 29.88 1012 10 16 N/A
7:35 pm 19:35 Sunny 83 28.1 58 14.4 43 43 SE 14 22 29.88 1012 10 16 N/A
7:55 pm 19:55 Sunny 81 27 61 16.3 52 52 SE 9 15 29.89 1012 10 16 N/A
8:15 pm 20:15 Sunny 79 26.1 64 17.5 59 59 ESE 12 19 29.91 1013 10 16 N/A
8:35 pm 20:35 Clear 77 25.1 64 17.5 63 63 ESE 9 15 29.92 1013 10 16 N/A
8:55 pm 20:55 Clear 76 24.5 64 17.5 65 65 SE 12 19 29.92 1013 10 16 N/A
9:15 pm 21:15 Clear 75 23.9 64 17.6 68 68 SE 10 17 29.94 1014 10 16 N/A
9:35 pm 21:35 Clear 74 23.5 64 17.6 70 70 SE 13 20 29.94 1014 10 16 N/A
9:55 pm 21:55 Clear 73 23 63 17.2 70 70 SE 14 22 29.95 1014 10 16 N/A
10:15 pm 22:15 Clear 73 22.5 63 17 71 71 SE 14 22 29.95 1014 10 16 N/A
10:35 pm 22:35 Clear 72 22.2 62 16.6 71 71 SE 15 24 29.96 1015 10 16 N/A
10:55 pm 22:55 Clear 71 21.6 62 16.7 74 74 SE 14 22 29.97 1015 10 16 N/A
11:15 pm 23:15 Clear 70 21.3 62 16.5 74 74 SE 15 24 29.97 1015 10 16 N/A
11:35 pm 23:35 Clear 70 20.9 62 16.5 76 76 SE 10 17 29.97 1015 10 16 N/A
11:55 pm 23:55 Clear 69 20.8 61 16.2 75 75 SE 9 15 29.99 1015 10 16 N/A

Powered by AerisWeather